This is the latest recevied weather packets stored in our database for station/object SP2JGY-2. If no packets are shown the sender has not sent any weather packets the latest 10 day(s).
| Time | Temp. | Humidity | Pressure | Rain* | Wind** | Luminosity | Snow |
|---|---|---|---|---|---|---|---|
| 1777633775 | 22.78° C | 22% | 1026.6 hPa | - | - | - | - |
| 1777632875 | 22.22° C | 24% | 1026.7 hPa | - | - | - | - |
| 1777631974 | 21.11° C | 25% | 1026.8 hPa | - | - | - | - |
| 1777631074 | 21.11° C | 26% | 1026.9 hPa | - | - | - | - |
| 1777630174 | 20.56° C | 27% | 1027 hPa | - | - | - | - |
| 1777629276 | 20.56° C | 27% | 1027.2 hPa | - | - | - | - |
| 1777628374 | 20.56° C | 27% | 1027.3 hPa | - | - | - | - |
| 1777627474 | 19.44° C | 33% | 1027.4 hPa | - | - | - | - |
| 1777626573 | 19.44° C | 34% | 1027.6 hPa | - | - | - | - |
| 1777625673 | 20° C | 38% | 1027.7 hPa | - | - | - | - |
| 1777624773 | 18.89° C | 38% | 1027.8 hPa | - | - | - | - |
| 1777623873 | 18.89° C | 39% | 1027.8 hPa | - | - | - | - |
| 1777622973 | 18.33° C | 41% | 1027.8 hPa | - | - | - | - |
| 1777622073 | 17.78° C | 43% | 1027.8 hPa | - | - | - | - |
| 1777621172 | 16.67° C | 45% | 1027.8 hPa | - | - | - | - |
| 1777620272 | 15.56° C | 47% | 1027.9 hPa | - | - | - | - |
| 1777619372 | 15° C | 49% | 1028 hPa | - | - | - | - |
| 1777618472 | 15° C | 48% | 1027.9 hPa | - | - | - | - |
| 1777617572 | 13.89° C | 51% | 1027.8 hPa | - | - | - | - |
| 1777616672 | 13.33° C | 53% | 1027.9 hPa | - | - | - | - |
| 1777615772 | 12.22° C | 55% | 1028 hPa | - | - | - | - |
| 1777614873 | 11.11° C | 59% | 1028 hPa | - | - | - | - |
| 1777613971 | 9.44° C | 63% | 1028.1 hPa | - | - | - | - |
| 1777613071 | 8.33° C | 67% | 1028.2 hPa | - | - | - | - |
| 1777612171 | 7.78° C | 69% | 1028 hPa | - | - | - | - |
* Rain since midnight (hover to see other rain measurements)
** Current wind speed in m/s (hover to see current wind gust speed)